Cloud_Cover
24 24 24 20 12 8 8 8 8 12 12 20 20 24 36 56 68 68 76 80 88 88 88 92 80 68 64 68 68 80 92 92 92 92 92 80 92 88 80 88 92 92 92 92 92 92 92 92 88 68 56 68 68 64 48 44 36 32 36 44 56 64 64 64 68 68 68 68 88
32 32 24 20 20 20 20 20 20 24 24 24 32 32 48 80 88 92 92 92 92 92 92 88 80 76 68 48 64 80 92 92 92 92 92 80 76 80 88 88 92 92 92 92 92 92 92 92 64 64 76 68 64 56 44 32 32 36 36 44 48 48 56 56 64 68 68 68 88
48 44 44 36 36 44 44 36 44 44 44 36 36 56 76 92 92 92 92 92 92 88 64 12 12 12 8 8 32 56 76 76 76 76 76 68 68 76 80 76 92 92 88 80 80 88 92 88 88 88 76 68 64 48 36 32 44 48 56 48 48 68 92 92 88 80 68 56 88
76 76 76 68 68 64 56 44 32 20 12 12 20 48 76 76 68 48 32 20 8 8 8 0 0 0 0 0 0 0 0 0 0 8 8 0 36 44 44 44 76 76 64 48 64 76 76 68 80 80 76 76 76 68 68 56 56 64 64 68 64 68 88 92 92 92 88 64 88
56 48 32 8 8 8 0 0 0 0 0 8 12 20 20 20 12 12 8 0 0 0 0 0 0 0 0 0 0 0 0 0 0 0 0 0 12 12 8 0 48 56 48 32 48 56 64 76 80 80 76 68 68 68 64 64 68 68 68 64 88 92 92 92 92 92 92 92 92
0 0 0 0 0 0 0 0 0 0 0 8 8 8 8 12 8 8 8 8 0 0 0 0 0 0 0 0 0 0 0 0 0 0 0 0 0 0 0 0 0 0 8 12 24 44 64 92 88 80 76 68 56 48 48 56 68 68 68 92 92 92 92 92 92 92 92 88 92
0 0 0 0 0 0 0 0 0 8 8 12 12 12 12 12 12 20 20 12 12 12 8 8 20 20 20 20 20 20 12 8 8 8 8 0 0 0 0 0 0 8 12 24 20 44 76 88 88 80 68 56 48 44 48 64 64 68 64 56 80 92 92 92 92 92 92 92 92
0 0 0 0 0 0 0 8 12 20 20 20 20 20 20 20 24 32 32 32 32 44 56 56 44 36 36 32 32 24 20 12 8 0 0 0 0 8 20 12 24 20 12 8 36 44 56 80 80 68 56 44 44 48 48 56 56 68 88 92 92 92 92 92 92 92 92 92 92
0 0 0 0 0 12 20 24 24 24 32 24 24 24 24 36 44 48 48 48 64 68 68 68 56 44 36 32 24 20 12 8 0 0 0 0 0 0 0 0 0 0 0 0 20 44 56 64 64 56 44 24 32 36 44 48 64 80 92 92 92 92 92 92 92 92 92 92 92
0 0 0 8 12 24 36 32 32 32 24 24 24 24 24 32 48 56 64 64 64 64 64 64 36 24 20 12 12 8 8 8 8 8 8 0 0 0 0 0 0 0 0 12 48 64 64 56 44 36 36 44 56 64 68 68 76 88 92 92 92 92 92 92 92 92 92 92 92
0 0 0 8 12 20 24 24 20 8 8 8 8 12 20 32 48 64 64 68 68 68 68 56 36 24 24 20 12 12 8 8 8 8 8 0 0 0 0 0 0 12 36 80 80 76 68 48 36 48 68 92 92 92 92 80 92 92 92 92 92 92 92 88 88 88 88 92 92
0 0 0 0 0 0 0 0 0 8 12 12 20 24 36 48 56 68 80 92 88 76 68 64 44 32 24 20 20 20 12 0 8 12 12 8 8 8 8 12 36 48 64 64 64 76 80 92 88 88 88 92 92 92 92 80 92 92 92 92 92 92 92 80 88 92 92 92 92
0 0 0 0 0 8 12 12 12 24 36 48 48 56 68 80 88 80 76 80 64 56 48 48 44 36 32 24 24 20 12 0 8 12 20 24 32 32 44 56 76 68 64 64 88 92 92 92 92 92 92 92 92 92 92 88 92 92 92 92 92 92 92 92 92 92 92 92 92
0 0 0 0 0 8 20 20 24 32 44 44 44 44 56 88 88 80 76 80 64 56 56 56 48 48 44 36 32 20 12 0 0 8 20 36 64 76 80 92 88 80 88 92 92 92 92 92 92 92 92 92 92 92 92 92 92 92 92 92 92 92 92 92 92 92 92 92 92
0 0 0 0 0 0 0 8 8 8 8 8 8 8 12 44 56 76 88 80 68 68 76 76 68 64 56 48 32 12 0 0 0 0 8 32 80 92 92 92 92 92 92 92 92 92 92 92 92 92 92 92 92 92 92 92 92 92 92 92 92 92 92 92 92 92 92 92 88
8 8 0 0 8 8 8 12 8 8 8 8 8 12 20 32 56 80 92 76 80 80 88 92 80 56 36 24 20 8 0 8 12 12 24 56 88 92 92 88 92 92 92 92 92 92 92 92 92 92 92 92 92 92 92 92 92 92 92 92 92 92 92 92 92 92 92 88 80
20 12 8 12 12 12 8 8 8 8 12 12 24 36 56 68 88 92 92 92 80 68 64 64 48 24 8 0 8 8 8 12 32 44 64 92 92 92 92 88 88 88 88 92 92 92 92 92 92 92 92 92 92 92 92 88 88 88 88 92 92 92 92 92 92 92 92 92 92
24 12 12 12 12 8 8 8 0 8 12 20 48 64 68 68 76 76 64 56 36 24 20 12 8 0 0 0 8 12 24 36 64 76 88 92 92 88 80 76 68 68 76 88 92 92 92 92 92 92 92 92 92 92 88 80 76 76 76 80 88 92 92 92 92 92 92 92 92
12 8 8 8 0 0 0 0 0 0 8 8 24 24 24 24 24 20 12 8 0 0 0 0 0 0 0 0 0 8 12 20 48 76 88 80 64 56 48 36 36 48 64 64 76 88 92 92 92 92 92 92 88 88 80 80 76 76 76 80 88 88 92 92 88 88 92 92 92
0 0 0 0 0 0 0 0 0 0 0 0 0 0 0 0 0 0 0 0 0 0 0 0 0 0 0 0 0 0 0 0 8 20 32 24 20 12 12 8 12 24 24 24 24 32 36 36 64 80 88 88 64 68 76 76 76 76 76 80 88 92 88 88 88 88 92 92 92
0 0 0 0 0 0 0 0 0 0 0 0 0 0 0 0 0 0 0 0 0 0 0 0 0 0 0 0 0 0 0 0 0 0 0 0 0 0 0 0 0 0 8 8 12 12 20 20 32 32 32 32 20 44 68 68 68 68 76 80 88 88 88 88 88 92 92 92 92
0 0 0 0 0 0 0 0 0 0 0 0 0 0 0 0 0 0 0 0 0 0 0 0 0 0 0 0 0 0 0 0 0 0 0 0 0 0 0 0 0 0 0 0 0 8 8 8 8 0 0 0 0 8 24 48 56 64 68 80 80 88 88 80 80 80 88 92 92
0 0 0 0 0 0 0 0 0 0 0 0 0 0 0 0 0 0 0 0 0 0 0 0 0 0 0 0 0 0 0 0 0 0 0 0 0 0 0 0 0 0 0 0 0 0 0 0 0 0 0 0 0 0 0 8 12 12 32 88 88 88 88 88 88 80 76 76 76
0 0 0 0 0 0 0 0 0 0 0 0 0 0 0 0 0 0 0 0 0 0 0 0 0 0 0 0 0 0 0 0 0 0 0 0 0 0 0 0 0 0 0 0 0 0 0 0 0 24 36 0 0 0 0 0 0 0 0 20 44 36 24 36 68 76 68 68 68
0 0 0 0 0 0 0 0 0 0 0 0 0 0 0 0 0 0 0 0 0 0 0 0 0 0 0 0 0 0 0 0 0 0 0 0 0 0 0 0 0 0 0 0 0 0 0 0 20 56 64 0 0 0 0 0 0 0 0 0 8 0 0 0 12 12 20 48 56
0 0 0 0 0 0 0 0 0 0 0 0 0 0 0 0 0 0 0 0 0 0 0 0 0 0 0 0 0 0 0 0 0 0 0 0 0 0 0 0 0 0 0 0 0 0 8 44 24 20 20 0 0 0 0 0 0 0 0 0 0 0 0 0 0 0 0 8 8
0 0 0 0 0 0 0 0 0 0 0 0 0 0 0 0 0 0 0 0 0 0 0 0 0 0 0 0 0 0 0 0 0 0 0 0 0 0 0 0 0 0 0 0 0 24 36 36 24 20 12 20 0 0 0 0 0 0 0 0 0 0 0 0 0 0 0 0 0
0 0 0 12 12 12 8 0 0 0 0 0 0 0 0 0 0 0 0 0 0 0 0 0 0 0 0 0 0 0 0 0 0 0 0 0 0 0 0 0 0 0 0 0 12 12 8 0 0 0 0 0 0 0 0 0 0 0 0 0 0 0 0 0 0 0 0 0 0
8 20 24 32 24 12 8 0 0 0 0 0 0 0 0 0 0 0 0 0 0 0 0 0 0 0 0 0 0 0 0 0 0 0 0 0 0 0 0 0 0 0 0 0 0 0 0 0 0 0 0 0 0 0 0 0 0 0 0 0 0 0 0 0 0 0 0 0 0
36 36 36 32 20 8 0 0 0 0 0 0 0 0 0 0 0 0 0 0 0 0 0 0 0 0 0 0 0 0 0 0 12 24 32 36 24 8 0 0 0 0 0 0 0 0 0 0 0 0 0 0 0 0 0 0 0 0 0 0 0 0 0 0 0 0 0 0 0
48 48 36 12 0 0 0 0 0 0 0 0 0 0 0 0 0 0 0 0 0 0 0 0 0 0 0 0 0 8 20 36 44 44 44 24 8 0 0 0 0 0 0 0 0 0 0 0 0 0 0 0 0 0 0 0 0 0 0 0 0 0 0 0 0 0 0 0 0
56 36 12 0 0 0 0 0 0 0 0 0 0 0 0 0 0 0 0 0 0 0 0 0 0 0 0 0 8 20 20 0 32 44 44 24 8 0 0 0 0 0 0 0 0 0 0 0 0 0 0 0 0 0 0 0 0 0 0 0 0 0 0 0 0 0 0 0 0
36 12 0 0 0 0 0 0 0 0 0 0 0 0 0 0 0 0 0 0 0 8 20 32 24 20 8 0 8 8 8 0 20 24 12 0 0 0 0 0 0 0 0 0 0 0 0 0 0 0 0 20 24 20 12 12 8 8 8 0 0 0 0 0 0 0 0 0 0
8 0 0 0 0 0 0 0 0 0 0 0 0 0 0 0 0 0 0 0 20 44 68 68 48 36 20 12 12 8 8 8 8 8 8 8 0 0 0 0 0 0 0 0 8 8 8 12 0 0 0 8 24 32 32 32 24 24 20 12 0 0 0 0 0 0 0 0 0
0 0 0 0 0 0 0 0 0 0 0 0 0 0 0 0 0 0 0 12 32 56 64 48 36 24 20 12 12 20 32 32 32 32 32 24 12 0 0 0 0 0 8 8 8 8 8 12 12 8 0 8 20 24 32 36 32 32 24 20 8 0 0 0 0 0 0 0 0
0 0 0 0 0 0 0 0 0 0 0 0 0 0 0 0 0 0 0 0 24 44 48 20 20 24 32 24 32 44 64 68 64 56 48 44 24 8 0 0 0 12 24 32 12 8 8 0 12 24 36 44 44 32 20 20 12 12 20 12 8 0 0 0 0 0 0 0 0
0 0 0 0 0 0 0 0 0 0 0 0 0 0 0 0 0 0 0 0 20 36 36 0 8 32 44 24 32 48 68 64 64 64 64 48 32 12 0 0 12 32 48 56 44 32 32 36 48 68 88 88 88 56 20 0 0 0 0 0 0 0 0 0 0 0 0 0 0
0 0 0 0 0 0 0 0 0 0 0 0 0 0 0 0 0 0 8 12 44 36 12 0 0 12 20 8 20 48 64 56 64 68 68 44 24 20 20 36 44 48 64 76 64 64 68 76 80 80 76 68 68 56 32 0 0 0 0 0 0 0 0 0 0 0 0 0 0
0 0 0 0 0 0 0 0 0 0 0 0 0 0 0 0 8 24 44 48 56 48 32 8 0 0 0 0 8 24 44 48 44 48 48 44 32 36 56 88 68 64 64 68 68 68 68 64 68 56 44 44 36 32 20 8 0 0 0 0 0 0 0 0 0 0 0 0 0
0 0 0 0 0 0 12 24 8 0 0 0 0 0 0 8 44 68 80 56 64 56 36 12 0 0 0 0 8 20 24 12 12 20 32 44 48 64 80 88 80 76 68 68 68 68 64 64 56 48 36 32 24 20 12 0 0 0 0 0 0 0 0 0 0 0 8 8 8
0 0 0 0 0 24 44 24 8 0 0 0 0 0 20 56 80 88 80 48 48 44 24 0 0 0 0 0 0 0 0 0 8 24 44 56 64 68 76 76 76 64 56 56 64 64 56 56 48 36 32 24 24 36 36 20 0 0 0 0 0 0 0 0 0 8 12 12 12